KC3RWX Weather Reports


time (UTC)temp
F
wind
direction
speed
knots
gust
knots
rain 1hr
in
rain 24hr
in
rain mn
in
humidity
%
barometer
mb
20260506091513 65 348 10.4 16.5 0.00 0.00 0.00 60 1008.5
20260506090041 66 39 9.6 15.6 0.00 0.00 0.00 59 1008.4
20260506084517 66 360 10.4 15.6 0.00 0.00 0.00 58 1008.4
20260506083018 65 358 7.8 13.0 0.00 0.00 0.00 57 1008.5
20260506081521 65 37 7.0 13.9 0.00 0.00 0.00 57 1008.5
20260506073028 66 50 6.1 8.7 0.00 0.00 0.00 55 1008.6
20260506071522 66 81 3.5 6.1 0.00 0.00 0.00 53 1008.9
20260506061540 67 25 7.8 12.2 0.00 0.00 0.00 48 1009.6
20260506044529 67 32 4.3 11.3 0.00 0.00 0.00 46 1010.3
20260506043036 67 355 6.1 9.6 0.00 0.00 0.00 45 1010.1
20260506041530 65 20 3.5 5.2 0.00 0.00 0.00 47 1010.1
20260506040019 66 54 1.7 4.3 0.00 0.00 0.00 47 1010.2
20260506034524 66 44 3.5 10.4 0.00 0.00 0.00 46 1010.2
20260506033005 66 50 3.5 7.0 0.00 0.00 0.00 46 1010.2
20260506031508 66 56 1.7 5.2 0.00 0.00 0.00 47 1010.2
20260506030015 67 34 4.3 8.7 0.00 0.00 0.00 46 1010.1
20260506024537 68 60 3.5 9.6 0.00 0.00 0.00 45 1010.0
20260506023004 68 44 0.9 7.8 0.00 0.00 0.00 44 1010.1
20260506021504 69 45 2.6 9.6 0.00 0.00 0.00 44 1010.1
20260506020009 69 46 2.6 12.2 0.00 0.00 0.00 42 1010.1
20260506014530 70 29 7.0 14.8 0.00 0.00 0.00 41 1009.9
20260506013021 71 56 4.3 10.4 0.00 0.00 0.00 41 1009.8
20260506011525 71 47 8.7 12.2 0.00 0.00 0.00 40 1009.6
20260506010008 72 63 6.1 11.3 0.00 0.00 0.00 39 1009.5
20260506004512 73 53 7.8 13.9 0.00 0.00 0.00 37 1009.3
20260506003016 74 72 7.0 18.2 0.00 0.00 0.00 38 1009.1
20260506001520 73 58 8.7 13.9 0.00 0.00 0.00 39 1009.1
20260506000024 74 41 6.1 12.2 0.00 0.00 0.00 40 1008.9
20260505234507 74 66 8.7 13.0 0.00 0.00 0.00 39 1008.9
20260505233014 75 72 13.0 18.2 0.00 0.00 0.00 39 1008.7
20260505231522 75 48 8.7 14.8 0.00 0.00 0.00 40 1008.6
20260505230022 75 30 8.7 13.9 0.00 0.00 0.00 40 1008.6
20260505224526 75 56 9.6 20.9 0.00 0.00 0.00 39 1008.6
20260505223011 76 58 10.4 16.5 0.00 0.00 0.00 38 1008.7
20260505221515 76 43 12.2 20.0 0.00 0.00 0.00 38 1008.6
20260505220021 76 58 9.6 17.4 0.00 0.00 0.00 40 1008.6
20260505214530 76 44 8.7 22.6 0.00 0.00 0.00 39 1008.4
20260505213025 76 53 7.8 14.8 0.00 0.00 0.00 42 1008.3
20260505211512 76 43 7.8 16.5 0.00 0.00 0.00 41 1008.3
20260505210016 76 50 7.0 24.3 0.00 0.00 0.00 40 1008.2
20260505204521 76 309 12.2 20.9 0.00 0.00 0.00 40 1008.2
20260505203028 76 51 11.3 16.5 0.00 0.00 0.00 39 1008.3
20260505201525 77 51 10.4 15.6 0.00 0.00 0.00 38 1008.3
20260505200013 77 51 13.0 23.5 0.00 0.00 0.00 37 1008.4
20260505194517 78 69 11.3 16.5 0.00 0.00 0.00 37 1008.4
20260505193021 78 42 11.3 18.2 0.00 0.00 0.00 38 1008.6
20260505191526 78 44 8.7 15.6 0.00 0.00 0.00 38 1008.6
20260505190022 78 16 17.4 24.3 0.00 0.00 0.00 36 1008.9
20260505184516 77 54 14.8 19.1 0.00 0.00 0.00 38 1009.1
20260505183033 77 22 13.0 20.0 0.00 0.00 0.00 38 1009.3
20260505181523 78 54 12.2 20.0 0.00 0.00 0.00 40 1009.3
20260505180013 76 66 13.0 20.0 0.00 0.00 0.00 39 1009.6
20260505174512 77 51 14.8 24.3 0.00 0.00 0.00 41 1009.6
20260505173018 77 65 9.6 21.7 0.00 0.00 0.00 44 1009.8
20260505171520 76 67 9.6 18.2 0.00 0.00 0.00 45 1009.7
20260505170009 76 72 8.7 19.1 0.00 0.00 0.00 42 1009.9
20260505164509 76 101 9.6 22.6 0.00 0.00 0.00 44 1010.2
20260505163018 75 66 14.8 22.6 0.00 0.00 0.00 49 1010.5
20260505161519 75 106 7.8 16.5 0.00 0.00 0.00 49 1010.3
20260505153014 74 72 11.3 19.1 0.00 0.00 0.00 51 1010.8
20260505151515 73 29 10.4 17.4 0.00 0.00 0.00 48 1010.8
20260505124535 65 41 7.0 7.8 0.00 0.00 0.00 1011.5
20260505123031 65 36 4.3 7.0 0.00 0.00 0.00 1011.4
20260505121537 64 65 2.6 2.6 0.00 0.00 0.00 1011.3
20260505120040 63 79 0.9 1.7 0.00 0.00 0.00 74 1011.1
20260505114536 59 0.9 2.6 0.00 0.00 0.00 76 1011.0
20260505113031 58 146 0.0 0.9 0.00 0.00 0.00 79 1011.2
20260505111531 55 149 0.9 1.7 0.00 0.00 0.00 83 1011.1
20260505101541 52 162 1.7 2.6 0.00 0.00 0.00 82 1010.4
20260505100029 52 141 0.9 1.7 0.00 0.00 0.00 83 1010.4
20260505094536 52 172 0.9 3.5 0.00 0.00 0.00 82 1010.5
20260505093014 53 136 0.9 2.6 0.00 0.00 0.00 80 1010.2